PAM4707 KEWR-KIAD

Flight info

Callsign PAM4707
Flight time 0h 42m
Altitude 18000
Route PARKE HYPER9
Aircraft B77L/H-SDE1E2E3FGHIJ2J3J4J5M1RWXY/LB1D1

Departure

Time 2026-05-06 17:44
Airport Newark Liberty International Airport (KEWR)

Arrival

Time 2026-05-06 18:26
Airport Washington Dulles International Airport (KIAD)
Time Latitude Longitude Altitude Speed Heading
2026-05-06 17:07 40.69384 -74.17159 21 ft 0 kts 283°
2026-05-06 17:34 40.69381 -74.17143 25 ft 4 kts 282°
2026-05-06 17:34 40.69377 -74.17110 26 ft 4 kts 289°
2026-05-06 17:34 40.69367 -74.17086 26 ft 4 kts 320°
2026-05-06 17:34 40.69355 -74.17077 25 ft 4 kts 15°
2026-05-06 17:35 40.69330 -74.17089 25 ft 4 kts 17°
2026-05-06 17:35 40.69325 -74.17091 27 ft 1 kts 14°
2026-05-06 17:39 40.69326 -74.17091 26 ft 4 kts 14°
2026-05-06 17:39 40.69423 -74.17041 26 ft 19 kts 27°
2026-05-06 17:40 40.69582 -74.16932 25 ft 27 kts 27°
2026-05-06 17:40 40.69707 -74.16853 26 ft 13 kts 25°
2026-05-06 17:40 40.69815 -74.16789 27 ft 22 kts 18°
2026-05-06 17:40 40.69947 -74.16763 23 ft 22 kts
2026-05-06 17:41 40.70001 -74.16757 24 ft 2 kts
2026-05-06 17:41 40.70006 -74.16756 23 ft 0 kts
2026-05-06 17:42 40.70007 -74.16756 23 ft 1 kts
2026-05-06 17:42 40.70053 -74.16720 26 ft 11 kts 46°
2026-05-06 17:42 40.70072 -74.16601 20 ft 18 kts 91°
2026-05-06 17:42 40.70068 -74.16497 20 ft 0 kts 93°
2026-05-06 17:43 40.70068 -74.16495 20 ft 2 kts 93°
2026-05-06 17:43 40.70051 -74.16426 20 ft 11 kts 134°
2026-05-06 17:43 40.69940 -74.16426 18 ft 22 kts 203°
2026-05-06 17:43 40.69751 -74.16536 24 ft 56 kts 205°
2026-05-06 17:44 40.69000 -74.17012 28 ft 182 kts 205°
2026-05-06 17:44 40.67763 -74.17790 496 ft 222 kts 206°
2026-05-06 17:44 40.66462 -74.18667 2402 ft 201 kts 212°
2026-05-06 17:44 40.65411 -74.19780 3643 ft 198 kts 235°
2026-05-06 17:45 40.65096 -74.21639 4150 ft 227 kts 274°
2026-05-06 17:45 40.65557 -74.23671 4811 ft 237 kts 282°
2026-05-06 17:45 40.66032 -74.25778 5560 ft 242 kts 279°
2026-05-06 17:45 40.66417 -74.27958 6329 ft 246 kts 275°
2026-05-06 17:46 40.66713 -74.30170 7197 ft 243 kts 272°
2026-05-06 17:46 40.66938 -74.32370 8020 ft 243 kts 270°
2026-05-06 17:46 40.67109 -74.34555 8870 ft 238 kts 268°
2026-05-06 17:46 40.67239 -74.36719 9645 ft 237 kts 267°
2026-05-06 17:47 40.67340 -74.38873 9991 ft 239 kts 267°
2026-05-06 17:47 40.67425 -74.41077 9988 ft 241 kts 268°
2026-05-06 17:47 40.67905 -74.43251 10009 ft 255 kts 287°
2026-05-06 17:47 40.68713 -74.45342 10004 ft 257 kts 288°
2026-05-06 17:48 40.69529 -74.47431 9992 ft 256 kts 288°
2026-05-06 17:48 40.70347 -74.49507 9977 ft 255 kts 288°
2026-05-06 17:48 40.71168 -74.51584 9976 ft 255 kts 289°
2026-05-06 17:48 40.71986 -74.53653 9986 ft 255 kts 289°
2026-05-06 17:49 40.72808 -74.55734 9982 ft 257 kts 289°
2026-05-06 17:49 40.73634 -74.57829 9967 ft 258 kts 289°
2026-05-06 17:49 40.74461 -74.59928 9957 ft 258 kts 289°
2026-05-06 17:49 40.75288 -74.62025 9983 ft 257 kts 289°
2026-05-06 17:50 40.76113 -74.64120 9989 ft 258 kts 289°
2026-05-06 17:50 40.76937 -74.66229 9963 ft 258 kts 288°
2026-05-06 17:50 40.77712 -74.68334 9964 ft 249 kts 282°
2026-05-06 17:50 40.77882 -74.70520 9967 ft 235 kts 256°
2026-05-06 17:51 40.77381 -74.72561 9959 ft 234 kts 245°
2026-05-06 17:51 40.76747 -74.74501 9961 ft 233 kts 244°
2026-05-06 17:51 40.76084 -74.76452 9959 ft 233 kts 244°
2026-05-06 17:51 40.75406 -74.78436 9967 ft 234 kts 244°
2026-05-06 17:52 40.74743 -74.80360 10388 ft 237 kts 244°
2026-05-06 17:52 40.74048 -74.82354 11023 ft 241 kts 244°
2026-05-06 17:52 40.73316 -74.84418 11374 ft 258 kts 244°
2026-05-06 17:52 40.72452 -74.86539 11754 ft 267 kts 234°
2026-05-06 17:53 40.71237 -74.88439 12312 ft 273 kts 230°
2026-05-06 17:53 40.69979 -74.90322 12923 ft 275 kts 234°
2026-05-06 17:53 40.69009 -74.92511 13471 ft 282 kts 247°
2026-05-06 17:53 40.68430 -74.95127 13724 ft 316 kts 258°
2026-05-06 17:54 40.68219 -74.98135 14293 ft 339 kts 265°
2026-05-06 17:54 40.68202 -75.01279 15307 ft 346 kts 268°
2026-05-06 17:54 40.68156 -75.04451 16345 ft 348 kts 262°
2026-05-06 17:54 40.67675 -75.07587 17356 ft 350 kts 253°
2026-05-06 17:55 40.66885 -75.10652 17954 ft 356 kts 247°
2026-05-06 17:55 40.65734 -75.13571 17972 ft 362 kts 241°
2026-05-06 17:55 40.64437 -75.16439 17975 ft 366 kts 240°
2026-05-06 17:55 40.63114 -75.19300 17971 ft 367 kts 240°
2026-05-06 17:56 40.61786 -75.22167 17970 ft 366 kts 240°
2026-05-06 17:56 40.60466 -75.25026 17972 ft 365 kts 240°
2026-05-06 17:56 40.59152 -75.27888 17978 ft 366 kts 240°
2026-05-06 17:56 40.57838 -75.30763 17975 ft 366 kts 240°
2026-05-06 17:57 40.56527 -75.33638 17972 ft 367 kts 240°
2026-05-06 17:57 40.55216 -75.36516 17973 ft 366 kts 240°
2026-05-06 17:57 40.53911 -75.39385 17983 ft 366 kts 240°
2026-05-06 17:57 40.52605 -75.42254 17982 ft 366 kts 240°
2026-05-06 17:58 40.51298 -75.45123 17982 ft 366 kts 240°
2026-05-06 17:58 40.49988 -75.47998 17982 ft 366 kts 240°
2026-05-06 17:58 40.48680 -75.50866 17976 ft 365 kts 240°
2026-05-06 17:58 40.47375 -75.53721 17986 ft 365 kts 240°
2026-05-06 17:59 40.46064 -75.56591 17983 ft 366 kts 240°
2026-05-06 17:59 40.44754 -75.59455 17978 ft 366 kts 240°
2026-05-06 17:59 40.43448 -75.62307 17978 ft 366 kts 240°
2026-05-06 17:59 40.42136 -75.65170 17970 ft 366 kts 240°
2026-05-06 18:00 40.40822 -75.68035 17989 ft 366 kts 240°
2026-05-06 18:00 40.39509 -75.70896 17987 ft 366 kts 240°
2026-05-06 18:00 40.38192 -75.73762 17966 ft 366 kts 240°
2026-05-06 18:00 40.36876 -75.76622 17963 ft 366 kts 240°
2026-05-06 18:01 40.35577 -75.79442 17984 ft 367 kts 241°
2026-05-06 18:01 40.34258 -75.82303 17962 ft 368 kts 241°
2026-05-06 18:01 40.32935 -75.85171 17969 ft 368 kts 241°
2026-05-06 18:01 40.31608 -75.88045 17964 ft 369 kts 241°
2026-05-06 18:02 40.30279 -75.90921 17958 ft 368 kts 241°
2026-05-06 18:02 40.28965 -75.93763 17688 ft 363 kts 241°
2026-05-06 18:02 40.27660 -75.96580 17272 ft 360 kts 240°
2026-05-06 18:02 40.26346 -75.99416 16755 ft 359 kts 240°
2026-05-06 18:03 40.25056 -76.02198 16311 ft 357 kts 240°
2026-05-06 18:03 40.23785 -76.04935 15857 ft 355 kts 240°
2026-05-06 18:03 40.22502 -76.07696 15430 ft 354 kts 240°
2026-05-06 18:03 40.21231 -76.10429 15009 ft 352 kts 240°
2026-05-06 18:04 40.19962 -76.13155 14601 ft 350 kts 240°
2026-05-06 18:04 40.18702 -76.15861 14212 ft 348 kts 240°
2026-05-06 18:04 40.17439 -76.18571 14006 ft 349 kts 239°
2026-05-06 18:04 40.16177 -76.21274 13992 ft 348 kts 239°
2026-05-06 18:05 40.14919 -76.23967 13983 ft 346 kts 239°
2026-05-06 18:05 40.13665 -76.26648 13989 ft 346 kts 239°
2026-05-06 18:05 40.12405 -76.29341 13993 ft 347 kts 239°
2026-05-06 18:05 40.11151 -76.32021 13980 ft 347 kts 239°
2026-05-06 18:06 40.09892 -76.34708 13972 ft 347 kts 239°
2026-05-06 18:06 40.08630 -76.37399 13975 ft 346 kts 239°
2026-05-06 18:06 40.07373 -76.40076 13982 ft 345 kts 239°
2026-05-06 18:06 40.06117 -76.42749 13969 ft 346 kts 239°
2026-05-06 18:07 40.04857 -76.45427 13970 ft 346 kts 239°
2026-05-06 18:07 40.03596 -76.48105 13976 ft 346 kts 239°
2026-05-06 18:07 40.02332 -76.50787 13974 ft 347 kts 239°
2026-05-06 18:07 40.01068 -76.53467 13971 ft 347 kts 239°
2026-05-06 18:08 39.99805 -76.56145 13972 ft 347 kts 239°
2026-05-06 18:08 39.98534 -76.58837 13974 ft 348 kts 239°
2026-05-06 18:08 39.97265 -76.61523 13968 ft 349 kts 239°
2026-05-06 18:08 39.95991 -76.64214 13975 ft 348 kts 239°
2026-05-06 18:09 39.94721 -76.66896 13972 ft 349 kts 239°
2026-05-06 18:09 39.93443 -76.69590 13965 ft 349 kts 239°
2026-05-06 18:09 39.92167 -76.72280 13970 ft 349 kts 239°
2026-05-06 18:09 39.90890 -76.74971 13977 ft 349 kts 239°
2026-05-06 18:10 39.89613 -76.77659 13968 ft 349 kts 239°
2026-05-06 18:10 39.88355 -76.80304 13975 ft 349 kts 239°
2026-05-06 18:10 39.87059 -76.83027 13968 ft 348 kts 239°
2026-05-06 18:10 39.85805 -76.85663 13970 ft 348 kts 239°
2026-05-06 18:11 39.84527 -76.88344 13974 ft 348 kts 239°
2026-05-06 18:11 39.83664 -76.90152 13968 ft 348 kts 239°
2026-05-06 18:11 39.81977 -76.93699 13969 ft 348 kts 239°
2026-05-06 18:11 39.80714 -76.96388 13979 ft 348 kts 240°
2026-05-06 18:12 39.79457 -76.99069 13972 ft 348 kts 240°
2026-05-06 18:12 39.78191 -77.01764 13991 ft 348 kts 240°
2026-05-06 18:12 39.76927 -77.04450 13980 ft 349 kts 240°
2026-05-06 18:12 39.75658 -77.07138 13981 ft 348 kts 239°
2026-05-06 18:13 39.74405 -77.09793 13754 ft 341 kts 240°
2026-05-06 18:13 39.73189 -77.12367 13653 ft 327 kts 239°
2026-05-06 18:13 39.72030 -77.14819 13552 ft 310 kts 240°
2026-05-06 18:13 39.70930 -77.17143 13457 ft 294 kts 240°
2026-05-06 18:14 39.69884 -77.19351 13330 ft 281 kts 240°
2026-05-06 18:14 39.68883 -77.21464 13136 ft 270 kts 240°
2026-05-06 18:14 39.67764 -77.23377 12829 ft 265 kts 228°
2026-05-06 18:14 39.66875 -77.24452 12562 ft 264 kts 226°
2026-05-06 18:15 39.65507 -77.26051 12065 ft 265 kts 226°
2026-05-06 18:15 39.64143 -77.27654 11572 ft 265 kts 226°
2026-05-06 18:15 39.62779 -77.29271 11092 ft 265 kts 226°
2026-05-06 18:15 39.61422 -77.30891 10603 ft 266 kts 226°
2026-05-06 18:16 39.60061 -77.32520 10152 ft 266 kts 227°
2026-05-06 18:16 39.58706 -77.34144 9678 ft 266 kts 226°
2026-05-06 18:16 39.57347 -77.35762 9160 ft 263 kts 224°
2026-05-06 18:16 39.55764 -77.36967 8648 ft 270 kts 206°
2026-05-06 18:17 39.53924 -77.37558 8162 ft 276 kts 197°
2026-05-06 18:17 39.52017 -77.37981 7696 ft 278 kts 195°
2026-05-06 18:17 39.50105 -77.38379 7362 ft 278 kts 196°
2026-05-06 18:17 39.48229 -77.38766 7212 ft 267 kts 196°
2026-05-06 18:18 39.46432 -77.39139 7006 ft 257 kts 196°
2026-05-06 18:18 39.44701 -77.39504 6686 ft 253 kts 197°
2026-05-06 18:18 39.42969 -77.39877 6312 ft 251 kts 197°
2026-05-06 18:18 39.41258 -77.40250 5914 ft 249 kts 197°
2026-05-06 18:19 39.39554 -77.40622 5511 ft 248 kts 197°
2026-05-06 18:19 39.37882 -77.40988 5123 ft 246 kts 197°
2026-05-06 18:19 39.36190 -77.41356 4920 ft 236 kts 196°
2026-05-06 18:19 39.34588 -77.41703 4948 ft 237 kts 196°
2026-05-06 18:20 39.32918 -77.42076 4962 ft 248 kts 196°
2026-05-06 18:20 39.31229 -77.42449 4938 ft 251 kts 196°
2026-05-06 18:20 39.29508 -77.42825 4922 ft 250 kts 195°
2026-05-06 18:20 39.27824 -77.43192 4916 ft 249 kts 196°
2026-05-06 18:21 39.26110 -77.43565 4918 ft 250 kts 196°
2026-05-06 18:21 39.24396 -77.43938 4910 ft 249 kts 196°
2026-05-06 18:21 39.22833 -77.44279 4755 ft 252 kts 196°
2026-05-06 18:21 39.21104 -77.44656 4536 ft 249 kts 196°
2026-05-06 18:22 39.19423 -77.45021 4331 ft 242 kts 195°
2026-05-06 18:22 39.17756 -77.45385 4130 ft 244 kts 195°
2026-05-06 18:22 39.16069 -77.45640 3847 ft 244 kts 189°
2026-05-06 18:22 39.14385 -77.45696 3553 ft 240 kts 186°
2026-05-06 18:23 39.12734 -77.45707 3281 ft 235 kts 185°
2026-05-06 18:23 39.11107 -77.45727 2968 ft 232 kts 184°
2026-05-06 18:23 39.09499 -77.45751 2688 ft 230 kts 184°
2026-05-06 18:23 39.07907 -77.45773 2394 ft 228 kts 184°
2026-05-06 18:24 39.06348 -77.45796 2150 ft 218 kts 184°
2026-05-06 18:24 39.04870 -77.45819 1831 ft 208 kts 185°
2026-05-06 18:24 39.03477 -77.45838 1559 ft 189 kts 184°
2026-05-06 18:24 39.02230 -77.45854 1337 ft 171 kts 184°
2026-05-06 18:25 39.01106 -77.45873 1106 ft 154 kts 182°
2026-05-06 18:25 39.00100 -77.45886 889 ft 136 kts 182°
2026-05-06 18:25 38.99160 -77.45887 756 ft 134 kts 183°
2026-05-06 18:25 38.98202 -77.45910 587 ft 141 kts 185°
2026-05-06 18:26 38.97222 -77.45935 356 ft 137 kts 183°
2026-05-06 18:26 38.96330 -77.45956 305 ft 110 kts 179°
2026-05-06 18:26 38.95797 -77.45960 308 ft 56 kts 181°
2026-05-06 18:26 38.95481 -77.45907 309 ft 38 kts 157°
2026-05-06 18:27 38.95394 -77.45848 309 ft 0 kts 149°
2026-05-06 18:28 38.95366 -77.45826 307 ft 17 kts 149°
2026-05-06 18:28 38.95258 -77.45749 308 ft 11 kts 156°
2026-05-06 18:28 38.95182 -77.45720 307 ft 0 kts 172°
2026-05-06 18:29 38.95176 -77.45719 307 ft 5 kts 172°
2026-05-06 18:29 38.95083 -77.45715 306 ft 20 kts 180°
2026-05-06 18:29 38.94924 -77.45720 306 ft 26 kts 180°
2026-05-06 18:30 38.94779 -77.45721 306 ft 0 kts 180°
2026-05-06 18:30 38.94772 -77.45721 306 ft 2 kts 180°
2026-05-06 18:30 38.94756 -77.45721 307 ft 3 kts 180°
2026-05-06 18:30 38.94730 -77.45722 306 ft 4 kts 180°
2026-05-06 18:31 38.94697 -77.45712 306 ft 5 kts 154°
2026-05-06 18:31 38.94674 -77.45673 308 ft 6 kts 112°
2026-05-06 18:31 38.94668 -77.45619 307 ft 8 kts 95°
2026-05-06 18:31 38.94665 -77.45543 305 ft 10 kts 91°
2026-05-06 18:32 38.94645 -77.45482 307 ft 2 kts 165°
2026-05-06 18:32 38.94629 -77.45483 306 ft 3 kts 181°
2026-05-06 18:32 38.94608 -77.45484 306 ft 2 kts 180°
2026-05-06 18:32 38.94593 -77.45483 306 ft 0 kts 176°